Wind_Speed
9 9 10 9 9 9 9 9 9 9 8 8 8 8 7 8 8 8 9 10 11 12 12 13 13 14 14 14 14 14 14 15 15 16 16 15 15 15 15 16 17 17
10 10 10 10 10 10 10 9 9 9 9 8 8 8 7 8 8 9 10 10 11 12 13 13 14 14 15 15 14 14 15 16 16 17 16 16 16 16 16 16 16 17
11 11 12 12 12 11 10 10 9 9 9 9 8 7 8 8 8 9 10 11 11 12 13 13 14 14 14 15 14 14 15 16 17 17 16 16 17 16 16 16 17 18
13 12 12 12 12 12 11 11 10 10 10 10 9 8 8 8 9 10 11 11 12 13 13 14 14 14 14 15 15 15 15 16 17 17 16 16 17 17 17 18 19 20
14 14 13 13 13 13 12 12 11 11 11 10 10 10 9 9 10 11 11 12 13 14 14 15 15 15 15 15 15 15 15 16 16 16 16 16 17 17 17 18 19 20
15 15 14 14 13 13 12 12 12 11 11 11 11 11 10 10 11 12 12 13 14 15 16 16 16 16 15 15 15 16 15 15 16 16 16 17 18 18 18 18 19 19
16 15 15 14 13 13 13 12 12 12 12 12 12 11 11 11 12 13 14 14 15 16 17 17 17 16 16 15 15 16 15 16 17 17 18 18 19 19 19 20 20 19
16 15 15 15 14 13 13 13 13 13 12 12 12 12 12 12 13 14 14 15 16 17 17 17 17 16 16 16 16 16 16 17 18 18 19 20 20 20 20 20 20 20
16 16 15 15 14 14 14 14 13 13 13 12 12 12 13 14 14 15 15 16 17 17 18 18 17 16 16 15 16 17 17 17 18 18 19 20 20 20 20 20 20 20
16 16 15 15 15 14 14 14 14 14 13 12 12 13 13 14 15 16 17 17 18 18 18 18 17 16 16 15 16 17 17 18 18 18 19 19 19 20 20 20 20 20
16 15 15 15 15 15 15 15 15 14 14 13 13 13 13 14 15 16 17 18 18 18 18 18 18 16 15 15 15 16 17 18 18 18 19 19 19 20 20 21 21 20
17 16 15 16 16 16 15 15 15 15 15 14 14 14 14 15 15 16 17 18 19 19 18 18 19 18 16 15 15 16 16 17 18 18 18 18 19 21 21 21 21 20
17 16 16 16 16 16 15 15 15 15 14 14 13 14 14 15 15 16 16 17 18 20 20 19 20 21 19 18 17 16 15 16 17 17 18 18 19 20 20 21 21 20
17 16 16 16 16 16 16 15 15 15 14 14 14 14 14 14 15 15 16 16 17 19 20 19 19 20 21 20 18 16 15 15 16 17 18 18 18 19 19 20 20 20
17 17 17 16 16 17 16 16 16 15 15 14 14 14 14 15 15 15 16 17 17 18 19 18 17 18 19 18 17 17 16 15 15 16 17 17 17 17 18 19 20 20
18 17 17 17 17 17 16 16 15 15 15 14 14 14 14 14 15 16 17 17 17 19 19 18 16 16 16 15 15 16 15 15 14 15 15 15 15 16 17 19 20 20
18 18 17 17 17 16 16 16 15 15 15 14 14 13 13 13 14 15 17 17 18 20 21 18 15 15 14 14 14 14 13 13 13 13 13 14 14 15 18 20 20 19
18 18 17 17 17 16 16 15 15 15 14 14 13 13 13 13 13 15 16 17 19 22 22 18 14 13 13 14 14 13 12 12 12 12 13 13 13 14 18 21 21 19
18 18 17 17 17 16 16 16 15 15 14 14 13 13 13 13 13 14 15 16 18 22 23 20 14 11 11 12 12 12 12 12 11 11 12 14 13 13 17 21 22 20
18 18 17 17 17 16 16 16 15 15 14 13 13 13 12 12 13 14 15 15 16 19 22 22 18 11 8 9 9 9 10 11 11 10 12 15 13 13 16 19 21 21
18 18 18 17 17 16 16 15 15 14 13 12 12 12 12 11 12 13 14 14 16 18 20 22 20 15 10 8 8 9 8 10 12 12 13 14 14 13 15 16 20 22
18 18 18 17 17 17 16 15 14 13 13 12 12 12 11 11 11 12 13 13 14 16 20 22 21 18 13 10 9 11 11 11 12 13 14 15 14 13 13 14 17 21
18 19 18 17 17 17 16 15 14 13 12 12 12 12 11 11 12 12 12 13 12 13 18 21 22 20 17 13 11 12 15 15 13 13 14 15 14 13 12 12 15 19
18 19 19 18 18 17 16 15 13 12 11 11 11 11 12 12 13 13 13 13 12 11 14 19 21 21 19 18 15 13 15 17 14 13 14 15 14 14 13 13 15 18
19 19 19 19 19 17 16 15 13 12 11 10 10 11 11 11 12 13 13 13 13 12 12 14 18 20 21 21 20 17 16 17 16 14 15 15 14 13 14 15 15 17
20 19 19 19 18 17 15 14 13 12 11 10 10 10 10 10 10 10 10 10 11 13 13 12 14 18 19 21 22 21 19 18 18 17 16 15 14 13 13 15 17 18
Wind_Direction
113 113 110 108 103 97 100 100 96 96 92 85 82 74 66 60 55 55 53 45 41 40 37 36 34 34 33 31 32 31 28 27 24 20 16 15 14 11 11 9 5 2
117 120 122 120 117 111 106 105 105 101 95 92 87 81 73 63 56 53 54 51 44 41 40 38 37 37 35 33 34 32 30 28 24 19 16 15 14 10 10 9 5 2
125 123 123 120 119 117 112 110 109 102 98 95 88 82 75 66 59 54 53 53 47 43 42 39 39 40 37 36 36 35 32 28 24 20 18 18 14 9 9 9 6 5
126 124 122 120 119 118 116 112 108 104 99 93 87 83 76 66 63 59 54 53 51 47 44 41 42 42 40 39 38 38 36 31 27 23 21 20 15 11 11 11 9 9
125 123 121 119 117 115 114 111 107 103 97 92 88 82 76 69 65 61 58 56 52 49 47 44 43 43 42 40 38 40 37 32 28 23 22 22 18 15 14 12 11 10
123 121 118 117 117 115 113 109 105 101 94 90 86 81 76 71 66 63 60 57 53 50 48 44 42 42 42 41 39 40 36 32 28 24 23 23 19 18 18 16 13 10
120 118 117 116 116 115 112 107 102 99 94 90 87 82 77 73 68 65 61 57 53 49 46 43 42 41 42 42 41 40 36 33 30 26 26 26 22 20 20 18 14 12
119 118 116 115 116 115 110 106 102 98 95 92 88 82 79 75 71 66 61 57 53 48 45 43 41 42 45 44 41 39 38 35 32 30 29 28 25 22 21 18 15 14
120 118 115 113 113 111 108 106 103 100 98 94 91 86 81 76 71 67 62 58 53 47 43 40 41 46 48 44 41 40 39 36 34 32 32 30 28 25 21 19 17 15
120 117 113 110 109 107 106 105 102 102 100 97 95 89 82 77 72 66 62 57 52 46 42 39 42 49 51 47 44 43 41 38 36 35 35 33 29 27 24 20 18 15
119 115 109 107 107 105 104 103 102 102 100 98 95 90 85 80 73 66 62 57 51 46 43 41 44 53 58 51 43 42 44 41 38 38 36 34 32 29 25 22 19 15
120 115 110 109 108 106 106 105 103 102 100 98 94 91 87 81 75 69 64 58 51 48 47 47 48 53 58 56 50 50 50 44 41 41 38 35 34 31 26 22 19 15
120 117 114 111 110 109 108 105 104 103 101 99 97 94 89 83 77 71 66 60 52 48 51 55 55 53 56 60 59 57 53 46 43 43 40 38 36 31 26 22 17 14
120 117 115 112 110 109 107 105 103 101 100 99 97 94 89 83 79 74 68 63 54 49 53 60 60 56 56 58 56 52 50 47 46 45 41 39 36 30 24 21 16 14
120 117 115 113 110 107 106 104 103 101 100 98 95 92 89 85 81 75 70 65 58 52 54 61 62 57 53 52 50 50 50 50 49 48 43 40 37 30 24 21 16 14
121 119 117 115 111 108 108 105 103 102 100 96 94 92 90 87 82 77 71 66 61 55 54 61 64 60 57 54 52 51 52 54 53 49 46 43 37 32 27 21 17 15
123 121 118 117 114 110 109 106 104 103 99 96 95 93 92 89 83 78 72 66 62 57 55 59 63 64 65 62 60 57 53 58 57 49 47 45 39 35 30 23 17 16
126 123 120 120 116 113 111 108 105 103 99 97 95 92 92 89 84 81 75 67 62 57 54 57 62 69 68 64 66 61 54 59 59 51 46 42 41 41 34 26 20 18
128 125 122 120 117 115 113 109 106 102 99 97 95 93 91 87 85 84 77 69 62 56 53 53 57 68 67 64 66 61 57 61 58 51 47 39 41 45 34 28 26 23
128 125 122 119 118 116 112 109 106 102 100 97 95 94 91 87 87 85 79 72 64 56 52 49 50 59 66 61 56 52 58 62 54 50 48 40 40 44 35 31 31 26
127 124 122 119 117 114 109 107 106 104 103 100 97 96 93 90 90 88 83 76 65 56 52 48 47 53 63 59 48 41 49 58 53 47 45 41 41 41 36 35 33 26
128 125 122 120 118 115 110 108 107 106 105 102 99 97 96 94 91 89 86 80 67 56 52 51 49 51 56 58 49 40 42 51 52 47 42 42 41 33 28 33 32 24
130 126 124 122 119 116 113 111 110 110 110 110 107 103 100 97 92 88 86 82 75 60 52 52 52 50 52 54 50 46 47 47 45 41 39 37 37 33 25 23 20 14
130 127 125 123 120 118 117 115 114 116 117 118 117 114 111 105 95 90 85 81 80 72 57 52 51 50 50 50 49 50 51 46 39 34 32 27 28 33 28 17 9 3
128 127 125 122 120 118 118 116 117 119 121 123 125 124 121 115 105 97 92 85 82 78 67 54 50 49 48 47 45 45 49 47 40 32 26 20 20 26 23 16 9 1
126 125 124 123 121 119 119 119 121 126 130 132 130 125 121 117 113 109 106 100 88 78 73 64 52 48 48 45 42 41 44 45 39 29 20 13 13 18 16 12 8 1
Height
826 827 828 829 830 831 832 832 833 834 835 836 836 837 837 836 836 835 834 834 833 833 832 831 830 829 829 829 828 828 829 829 829 828 828 828 828 827 827 827 826 825
827 828 829 830 831 832 833 833 835 835 836 837 837 837 837 837 836 835 835 835 834 833 833 832 831 830 829 829 829 829 829 829 830 829 829 829 829 828 828 828 827 826
828 829 829 830 831 832 834 835 836 836 837 837 838 838 838 838 837 837 836 835 835 834 833 832 831 830 830 830 830 830 830 830 831 830 831 830 830 830 829 828 828 826
828 829 830 831 831 833 834 835 836 837 837 838 838 839 839 839 838 837 837 836 835 834 834 833 832 831 831 831 831 831 831 831 832 832 831 831 831 831 830 830 829 828
828 829 830 831 832 833 835 836 837 837 838 838 838 839 839 839 839 838 838 837 836 835 834 833 833 832 832 832 831 832 832 832 832 832 832 832 832 832 831 831 830 829
828 829 830 831 833 834 835 836 837 837 838 838 838 839 840 840 839 839 838 837 836 835 834 834 833 833 833 833 833 833 833 833 833 833 833 833 833 833 832 832 831 830
827 829 830 832 833 835 836 836 837 837 838 839 839 840 840 840 840 839 839 838 837 836 835 834 834 834 834 834 834 834 834 834 834 834 834 834 834 834 833 833 832 832
827 829 830 832 834 835 836 836 837 837 838 839 840 841 841 841 841 840 839 838 837 836 835 835 835 835 835 835 835 835 835 835 835 835 835 835 836 836 835 835 834 833
829 830 831 833 834 836 836 836 837 838 839 840 841 842 842 841 841 840 839 838 837 837 836 836 836 836 836 836 836 836 836 836 836 836 837 837 837 837 837 836 836 835
830 831 832 834 835 836 836 837 838 838 840 841 842 843 842 842 842 841 840 839 838 838 837 837 837 837 837 837 837 838 838 838 838 838 838 839 839 839 838 838 837 836
830 832 833 834 835 836 837 838 839 839 841 842 843 843 843 843 842 841 841 840 839 839 838 838 838 838 838 837 837 838 839 839 839 840 840 840 840 840 840 839 838 837
830 832 833 835 836 837 838 839 840 840 842 843 843 844 844 843 843 842 841 841 840 840 839 839 840 839 839 838 838 838 839 840 841 841 841 842 841 841 841 840 840 839
831 832 834 835 836 837 838 839 840 841 842 843 844 844 845 844 844 843 843 842 841 841 840 840 840 840 840 840 840 840 840 841 843 843 843 843 843 843 843 842 841 840
831 833 834 836 837 838 839 840 841 842 843 844 845 845 845 845 845 845 844 843 843 842 841 841 842 842 842 841 842 842 842 842 844 844 844 844 844 844 844 843 842 841
832 833 835 837 838 839 840 841 842 843 844 845 846 846 846 846 846 846 845 845 844 843 843 843 843 843 843 843 843 843 843 844 845 846 845 845 845 845 844 844 843 842
832 834 835 837 839 840 841 842 843 844 845 846 846 847 847 847 847 847 846 846 845 844 844 845 845 845 845 845 845 845 845 845 846 847 846 846 846 845 845 844 843 842
833 834 836 838 839 841 842 843 844 845 846 847 847 848 849 849 849 848 848 847 846 846 846 846 846 846 846 846 846 846 846 846 847 848 847 846 846 845 845 845 844 843
834 835 837 839 840 841 843 844 845 846 847 848 849 849 850 850 850 850 849 849 848 847 847 847 848 848 847 847 846 847 847 847 848 848 847 847 846 845 845 845 844 843
834 836 838 839 841 842 843 844 846 847 848 849 850 851 851 851 852 851 851 851 850 849 849 849 850 849 849 848 847 848 848 848 848 849 848 847 846 845 845 845 844 843
835 836 838 840 841 843 844 845 846 848 849 850 851 852 852 853 853 853 853 853 852 851 851 851 851 850 850 849 849 849 849 848 849 849 848 847 847 846 845 845 844 843
835 837 839 840 842 843 844 846 847 849 850 851 852 853 854 854 855 855 854 854 853 853 853 852 852 851 851 850 850 850 849 848 849 849 848 848 847 846 846 845 844 844
835 837 839 840 842 843 844 847 848 850 851 852 853 854 855 856 856 856 856 856 855 855 854 854 853 852 852 852 851 851 849 849 849 850 849 848 848 847 846 846 845 845
835 837 839 840 842 843 845 847 849 851 852 853 854 856 857 857 857 857 857 857 857 857 856 855 855 854 854 854 853 852 851 849 850 850 849 849 849 848 847 847 846 845
836 837 839 840 842 843 845 847 849 852 853 854 855 857 858 858 858 858 858 858 858 859 858 857 857 856 856 855 854 853 852 851 850 850 850 850 850 849 849 848 847 846
836 837 839 840 842 843 846 847 849 852 854 855 856 858 858 859 859 859 859 859 860 860 859 859 859 858 858 856 855 855 853 852 851 851 850 850 850 850 850 849 848 847
836 838 839 841 842 844 846 848 850 853 854 856 857 858 859 859 859 859 860 860 861 860 860 860 860 859 859 858 857 856 854 853 852 852 852 851 851 851 851 849 849 847